KN4PLR Weather Reports


time (UTC)temp
C
wind
direction
speed
KPH
gust
KPH
rain 1hr
cm
rain 24hr
cm
rain mn
cm
humidity
%
barometer
mb
20260504151021 15 203 1.6 1.6 0.00 0.20 0.20 38 988.0
20260504081020 7 135 0.0 0.0 0.00 0.00 0.00 34 989.0
20260504050021 8 90 0.0 0.0 0.00 0.00 0.00 28 990.0
20260504045021 8 90 0.0 0.0 0.00 0.00 0.00 28 989.0
20260504044020 8 90 0.0 0.0 0.00 0.00 0.00 28 989.0
20260504042021 8 23 0.0 0.0 0.00 0.00 0.00 28 989.0
20260504040020 8 23 0.0 0.0 0.00 0.00 0.00 27 989.0
20260504035021 8 0 0.0 4.8 0.00 0.00 0.00 27 989.0
20260504033021 8 180 0.0 0.0 0.00 0.00 0.00 26 989.0
20260504032020 8 180 0.0 0.0 0.00 0.00 0.00 24 989.0
20260504031021 9 158 0.0 1.6 0.00 0.00 0.00 24 989.0
20260504030020 9 203 0.0 0.0 0.00 0.00 0.00 24 989.0
20260504025021 9 180 0.0 0.0 0.00 0.00 0.00 21 989.0
20260504024021 9 180 0.0 0.0 0.00 0.00 0.00 21 989.0
20260504023020 10 180 0.0 0.0 0.00 0.00 0.00 21 989.0
20260504022020 10 180 0.0 0.0 0.00 0.00 0.00 21 988.0
20260504021020 10 180 0.0 0.0 0.00 0.00 0.00 19 988.0
20260504020021 10 180 0.0 0.0 0.00 0.00 0.00 19 989.0
20260504015021 10 180 0.0 0.0 0.00 0.00 0.00 19 988.0
20260504014021 10 180 0.0 0.0 0.00 0.00 0.00 19 988.0
20260504013021 10 180 0.0 0.0 0.00 0.00 0.00 16 988.0
20260504011021 11 203 0.0 0.0 0.00 0.00 0.00 16 988.0
20260504010021 11 203 0.0 0.0 0.00 0.00 0.00 16 988.0
20260504004021 12 203 0.0 0.0 0.00 0.00 0.00 15 988.0
20260504003020 12 203 0.0 0.0 0.00 0.00 0.00 13 988.0
20260504002020 13 203 0.0 0.0 0.00 0.00 0.00 13 987.0
20260504001021 13 203 0.0 0.0 0.00 0.00 0.00 12 987.0
20260504000021 13 203 0.0 0.0 0.00 0.00 0.00 12 988.0
20260503235021 13 225 0.0 0.0 0.00 0.00 0.00 12 987.0
20260503234021 14 225 0.0 0.0 0.00 0.00 0.00 12 987.0
20260503233021 14 180 0.0 0.0 0.00 0.00 0.00 12 987.0
20260503232021 15 180 0.0 0.0 0.00 0.00 0.00 12 987.0
20260503231021 15 180 0.0 0.0 0.00 0.00 0.00 12 987.0
20260503230021 15 203 0.0 0.0 0.00 0.00 0.00 12 987.0
20260503225020 16 180 0.0 0.0 0.00 0.00 0.00 12 988.0
20260503223021 16 180 0.0 1.6 0.00 0.00 0.00 11 988.0
20260503222020 16 158 1.6 1.6 0.00 0.00 0.00 11 988.0
20260503221021 17 68 0.0 0.0 0.00 0.00 0.00 11 988.0
20260503215021 17 68 0.0 3.2 0.00 0.00 0.00 11 988.0
20260503214021 18 203 3.2 3.2 0.00 0.00 0.00 11 988.0
20260503213021 18 203 3.2 3.2 0.00 0.00 0.00 10 988.0
20260503212021 18 203 3.2 3.2 0.00 0.00 0.00 10 988.0
20260503211020 18 203 0.0 3.2 0.00 0.00 0.00 10 988.0
20260503210021 18 180 3.2 3.2 0.00 0.00 0.00 10 989.0
20260503205021 18 203 0.0 4.8 0.00 0.00 0.00 10 989.0
20260503204020 18 180 3.2 4.8 0.00 0.00 0.00 10 989.0
20260503203020 18 203 4.8 4.8 0.00 0.00 0.00 10 989.0
20260503201020 18 225 6.4 8.0 0.00 0.00 0.00 10 989.0
20260503200021 18 180 0.0 4.8 0.00 0.00 0.00 10 990.0
20260503194021 17 203 4.8 4.8 0.00 0.00 0.00 10 990.0
20260503193020 17 180 1.6 6.4 0.00 0.00 0.00 11 991.0
20260503192021 17 203 1.6 3.2 0.00 0.00 0.00 11 991.0
20260503191021 17 270 3.2 3.2 0.00 0.00 0.00 11 991.0
20260503190021 16 270 3.2 3.2 0.00 0.00 0.00 11 991.0
20260503185021 17 270 3.2 3.2 0.00 0.00 0.00 11 992.0
20260503184021 16 203 0.0 1.6 0.00 0.00 0.00 11 992.0
20260503183021 16 0 1.6 1.6 0.00 0.00 0.00 11 992.0
20260503182021 16 0 1.6 1.6 0.00 0.00 0.00 11 993.0
20260503180021 16 0 8.0 9.7 0.00 0.00 0.00 11 993.0
20260503175021 16 0 0.0 9.7 0.00 0.00 0.00 11 993.0
20260503174021 15 0 9.7 11.3 0.00 0.00 0.00 12 993.0
20260503173021 15 338 3.2 6.4 0.00 0.00 0.00 12 993.0
20260503172021 14 315 3.2 8.0 0.00 0.00 0.00 12 994.0